Weather in Sepych

Russia / Perm Krai     58°11′16″N   54°08′26″E
temp.,
°C
wind,
m/s
gust,
m/s
humid.,
%
clouds,
%
prec.,
mm/h
press.,
hPa
HPBL,
m
3 march, wed
wed323:00−2wsw3796100 1.3 994244
02:00−5wsw259685 0.1 994109
05:00−8w369655 0.1 995118
08:00−10w369737 0.0 995100
11:00−5w259466 0.0 996254
14:00−2w2489100 0.0 997538
17:00−2w3594100 0.4 997475
20:00−5wnw4991100 0.4 997468
4 march, thu
thu423:00−10wsw389586 0.4 998164
02:00−9w389487 0.0 997301
05:00−11wsw399575 0.0 997226
08:00−11wsw379598 0.0 996212
11:00−9sw489299 0.0 995357
14:00−6ssw4892100 0.1 993507
17:00−5s4892100 0.4 992609
20:00−6sse3896100 0.6 989388
5 march, fri
fri523:00−8sse2396100 0.7 98965
02:00−9ssw129796 0.1 98921
05:00−9sw239698 0.2 99234
08:00−8wnw389498 0.6 995335
11:00−8wnw489192 0.6 997454
14:00−8w4687100 0.0 999628
17:00−10w478698 0.1 1001749
20:00−14wnw3794100 0.0 1003155
6 march, sat
sat623:00−17w389577 0.1 1005161
02:00−19w38950 0.0 1006175
05:00−20w38960 0.0 1008163
08:00−20w249722 0.0 100978
11:00−14w249157 0.0 1009269
14:00−10sw2386100 0.1 1009593
17:00−9wsw2488100 0.3 1008526
20:00−12wsw2296100 0.2 100727
7 march, sun
sun723:00−15wnw2395100 0.3 100760
02:00−18nw2298100 0.1 100634
05:00−20nw2398100 0.1 100649
08:00−22wnw239888 0.0 100631
11:00−17wnw239369 0.0 1007250
14:00−14w248388 0.0 1007765
17:00−14wsw348494 0.1 1006756
20:00−19ssw239585 0.0 100620